This is the latest recevied weather packets stored in our database for station/object iz1wiy-2. If no packets are shown the sender has not sent any weather packets the latest 10 day(s).
| Time | Temp. | Humidity | Pressure | Rain* | Wind** | Luminosity | Snow |
|---|---|---|---|---|---|---|---|
| 1778256303 | 24.44° C | 33% | 1012.6 hPa | 0 mm | - | - | - |
| 1778256003 | 24.44° C | 35% | 1012.6 hPa | 0 mm | - | - | - |
| 1778255703 | 25° C | 33% | 1012.6 hPa | 0 mm | - | - | - |
| 1778255403 | 25° C | 32% | 1012.6 hPa | 0 mm | - | - | - |
| 1778255103 | 24.44° C | 33% | 1012.6 hPa | 0 mm | - | - | - |
| 1778254804 | 24.44° C | 35% | 1012.6 hPa | 0 mm | - | - | - |
| 1778254503 | 23.89° C | 34% | 1012.6 hPa | 0 mm | - | - | - |
| 1778254203 | 23.89° C | 33% | 1012.6 hPa | 0 mm | - | - | - |
| 1778253904 | 23.89° C | 34% | 1012.6 hPa | 0 mm | - | - | - |
| 1778253603 | 23.89° C | 35% | 1012.6 hPa | 0 mm | - | - | - |
| 1778253303 | 23.89° C | 35% | 1012.6 hPa | 0 mm | - | - | - |
| 1778253003 | 23.89° C | 35% | 1012.6 hPa | 0 mm | - | - | - |
| 1778252703 | 23.89° C | 34% | 1012.5 hPa | 0 mm | - | - | - |
| 1778252403 | 23.89° C | 32% | 1012.5 hPa | 0 mm | - | - | - |
| 1778252103 | 23.89° C | 32% | 1012.7 hPa | 0 mm | - | - | - |
| 1778251804 | 23.89° C | 35% | 1012.7 hPa | 0 mm | - | - | - |
| 1778251503 | 23.89° C | 34% | 1012.7 hPa | 0 mm | - | - | - |
| 1778251203 | 23.89° C | 33% | 1012.7 hPa | 0 mm | - | - | - |
| 1778250903 | 23.89° C | 33% | 1012.8 hPa | 0 mm | - | - | - |
| 1778250603 | 23.89° C | 33% | 1012.8 hPa | 0 mm | - | - | - |
| 1778250303 | 23.89° C | 36% | 1012.8 hPa | 0 mm | - | - | - |
| 1778250003 | 23.89° C | 35% | 1012.7 hPa | 0 mm | - | - | - |
| 1778249703 | 23.33° C | 36% | 1012.8 hPa | 0 mm | - | - | - |
| 1778249403 | 23.33° C | 37% | 1012.8 hPa | 0 mm | - | - | - |
| 1778249103 | 23.89° C | 35% | 1012.8 hPa | 0 mm | - | - | - |
* Rain latest hour (hover to see other rain measurements)
** Current wind speed in m/s (hover to see current wind gust speed)